Date String (YYYY-MM-DD hh:mm:ss) UTC,Instrument flags,absolute air pressure of the measurement (hPa),sample flow rate (lpm),inlet stack bypass flow (lpm),air temperature of the measurement (°C),ambient temperature measured by the external sensor (°C),aerosol sample conditioner tube jacket temperature (°C),OPC LED temperature (°C),internal box temperature (°C),relative humidity of the measurement (%),span deviation,mass concentration of particles derived from Lorenz-Mie calculation of OPC scattering (μg/m³),mass concentration of particles derived from Lorenz-Mie calculation of OPC scattering (μg/m³),mass concentration of particles derived from Lorenz-Mie calculation of OPC scattering (μg/m³)
DateTimeUTC,F1_M11,P_M11,Q1_M11,Q2_M11,T1_M11,T2_M11,T3_M11,T4_M11,T5_M11,U1_M11,ZSPAN_M11,X2_M11,X0_M11,X1_M11
2023-07-28 23:00:00,SystemResetWarning,0837.2,4.99,000.00,030.4,026.3,000.0,038.8,030.9,34.2,0000.0,0006.06,0016.01,0004.18
2023-07-28 23:01:00,SystemResetWarning,0837.2,4.99,000.00,030.4,026.7,000.0,038.8,031.0,35.0,0000.0,0005.88,0015.22,0004.11
2023-07-28 23:02:00,SystemResetWarning,0837.2,5.02,000.00,030.5,027.1,000.0,038.7,031.1,34.1,0000.0,0005.71,0014.41,0004.05
2023-07-28 23:03:00,SystemResetWarning,0837.2,4.98,000.00,030.5,027.4,000.0,038.7,031.2,33.8,0000.0,0005.57,0013.96,0004.02
2023-07-28 23:04:00,SystemResetWarning,0837.2,5.01,000.00,030.6,027.6,000.0,038.7,031.2,34.4,0000.0,0005.40,0013.09,0003.99
2023-07-28 23:05:00,SystemResetWarning,0837.1,5.00,000.00,030.6,027.1,000.0,038.6,031.2,34.6,0000.0,0005.38,0012.41,0003.97
2023-07-28 23:06:00,SystemResetWarning,0837.0,4.98,000.00,030.6,025.8,000.0,038.5,031.0,33.6,0000.0,0005.34,0012.21,0003.95
2023-07-28 23:07:00,SystemResetWarning,0836.9,5.01,000.00,030.5,025.6,000.0,038.4,030.9,33.0,0000.0,0005.36,0012.22,0003.95
2023-07-28 23:08:00,SystemResetWarning,0836.9,5.02,000.00,030.4,025.8,000.0,038.5,030.8,32.6,0000.0,0005.41,0012.59,0003.97
2023-07-28 23:09:00,SystemResetWarning,0837.0,4.99,000.00,030.3,026.2,000.0,038.5,030.8,30.6,0000.0,0005.50,0012.36,0003.99
2023-07-28 23:10:00,SystemResetWarning,0837.0,4.99,000.00,030.3,026.6,000.0,038.5,030.9,31.5,0000.0,0005.59,0012.39,0004.02
2023-07-28 23:11:00,SystemResetWarning,0836.9,5.00,000.00,030.3,026.9,000.0,038.5,031.0,31.3,0000.0,0005.70,0011.69,0004.06
2023-07-28 23:12:00,SystemResetWarning,0836.8,5.01,000.00,030.3,027.3,000.0,038.5,031.0,32.4,0000.0,0005.74,0011.73,0004.08
2023-07-28 23:13:00,SystemResetWarning,0836.8,5.00,000.00,030.3,027.5,000.0,038.5,031.1,32.5,0000.0,0005.77,0011.87,0004.12
2023-07-28 23:14:00,SystemResetWarning,0836.8,4.99,000.00,030.3,027.2,000.0,038.5,031.1,31.5,0000.0,0005.83,0012.13,0004.14
2023-07-28 23:15:00,SystemResetWarning,0836.8,5.00,000.00,030.2,025.7,000.0,038.3,030.9,31.5,0000.0,0006.05,0013.69,0004.19
2023-07-28 23:16:00,SystemResetWarning,0836.7,5.02,000.00,030.2,024.9,000.0,038.2,030.7,31.4,0000.0,0006.21,0014.27,0004.24
2023-07-28 23:17:00,SystemResetWarning,0836.7,5.00,000.00,030.0,024.9,000.0,038.2,030.5,33.1,0000.0,0006.31,0014.61,0004.30
2023-07-28 23:18:00,SystemResetWarning,0836.8,5.00,000.00,029.9,025.3,000.0,038.2,030.4,33.7,0000.0,0006.38,0014.74,0004.34
2023-07-28 23:19:00,SystemResetWarning,0836.8,4.98,000.00,029.8,025.8,000.0,038.2,030.5,33.8,0000.0,0006.50,0014.64,0004.38
2023-07-28 23:20:00,SystemResetWarning,0836.8,5.00,000.00,029.8,026.3,000.0,038.2,030.6,34.7,0000.0,0006.52,0015.19,0004.41
2023-07-28 23:21:00,SystemResetWarning,0836.9,5.01,000.00,029.9,026.7,000.0,038.2,030.8,34.2,0000.0,0006.50,0015.31,0004.42
2023-07-28 23:22:00,SystemResetWarning,0837.0,4.98,000.00,029.9,027.0,000.0,038.2,030.9,33.4,0000.0,0006.43,0015.08,0004.44
2023-07-28 23:23:00,SystemResetWarning,0836.9,5.00,000.00,029.9,027.4,000.0,038.2,030.9,33.6,0000.0,0006.46,0015.76,0004.46
2023-07-28 23:24:00,SystemResetWarning,0837.0,5.01,000.00,030.0,027.6,000.0,038.2,031.0,33.7,0000.0,0006.44,0015.85,0004.46
2023-07-28 23:25:00,SystemResetWarning,0836.9,5.00,000.00,030.0,027.5,000.0,038.2,031.0,34.0,0000.0,0006.42,0015.72,0004.47
2023-07-28 23:26:00,SystemResetWarning,0836.9,4.98,000.00,030.0,026.0,000.0,038.0,030.7,34.3,0000.0,0006.28,0014.51,0004.46
2023-07-28 23:27:00,SystemResetWarning,0836.8,5.01,000.00,029.9,025.0,000.0,037.9,030.5,34.7,0000.0,0006.18,0015.05,0004.43
2023-07-28 23:28:00,SystemResetWarning,0836.9,5.01,000.00,029.8,024.9,000.0,037.9,030.4,34.2,0000.0,0006.10,0015.32,0004.39
2023-07-28 23:29:00,SystemResetWarning,0836.8,4.98,000.00,029.7,025.3,000.0,037.9,030.3,33.6,0000.0,0006.04,0015.31,0004.35
2023-07-28 23:30:00,SystemResetWarning,0836.8,5.01,000.00,029.6,025.7,000.0,037.9,030.4,33.4,0000.0,0005.88,0014.95,0004.31
2023-07-28 23:31:00,SystemResetWarning,0836.8,5.01,000.00,029.6,026.2,000.0,037.9,030.5,34.1,0000.0,0005.78,0014.28,0004.26
2023-07-28 23:32:00,SystemResetWarning,0836.9,5.00,000.00,029.6,026.6,000.0,038.0,030.7,34.2,0000.0,0005.69,0014.16,0004.20
2023-07-28 23:33:00,SystemResetWarning,0836.8,5.00,000.00,029.7,027.0,000.0,038.0,030.7,34.2,0000.0,0005.62,0014.13,0004.14
2023-07-28 23:34:00,SystemResetWarning,0836.8,5.00,000.00,029.7,027.3,000.0,038.0,030.8,34.3,0000.0,0005.52,0013.71,0004.10
2023-07-28 23:35:00,SystemResetWarning,0836.8,5.00,000.00,029.7,027.6,000.0,038.0,030.9,34.4,0000.0,0005.49,0013.95,0004.08
2023-07-28 23:36:00,SystemResetWarning,0836.8,4.97,000.00,029.7,027.0,000.0,037.9,030.9,35.0,0000.0,0005.46,0013.86,0004.08
2023-07-28 23:37:00,SystemResetWarning,0836.8,5.04,000.00,029.8,025.5,000.0,037.8,030.7,35.5,0000.0,0005.45,0014.42,0004.08
2023-07-28 23:38:00,SystemResetWarning,0836.7,5.01,000.00,030.0,024.9,000.0,037.7,030.6,34.8,0000.0,0005.40,0013.32,0004.10
2023-07-28 23:39:00,SystemResetWarning,0836.7,4.97,000.00,030.1,025.0,000.0,037.7,030.5,34.7,0000.0,0005.38,0012.83,0004.11
2023-07-28 23:40:00,SystemResetWarning,0836.7,5.01,000.00,030.1,025.4,000.0,037.8,030.5,34.5,0000.0,0005.39,0013.02,0004.13
2023-07-28 23:41:00,SystemResetWarning,0836.7,5.01,000.00,030.2,025.9,000.0,037.9,030.6,34.3,0000.0,0005.41,0013.38,0004.15
2023-07-28 23:42:00,SystemResetWarning,0836.8,4.99,000.00,030.2,026.3,000.0,037.9,030.7,34.8,0000.0,0005.43,0013.51,0004.17
2023-07-28 23:43:00,SystemResetWarning,0836.8,5.01,000.00,030.3,026.7,000.0,038.0,030.8,34.2,0000.0,0005.46,0013.43,0004.20
2023-07-28 23:44:00,SystemResetWarning,0836.8,5.00,000.00,030.3,027.1,000.0,038.1,030.8,33.3,0000.0,0005.50,0013.09,0004.24
2023-07-28 23:45:00,SystemResetWarning,0836.8,5.00,000.00,030.3,027.4,000.0,038.1,030.9,34.3,0000.0,0005.53,0013.12,0004.28
2023-07-28 23:46:00,SystemResetWarning,0836.8,5.00,000.00,030.4,027.6,000.0,038.2,031.0,34.4,0000.0,0005.58,0012.37,0004.29
2023-07-28 23:47:00,SystemResetWarning,0836.8,4.98,000.00,030.4,027.3,000.0,038.2,031.0,34.5,0000.0,0005.61,0012.26,0004.30
2023-07-28 23:48:00,SystemResetWarning,0836.8,5.00,000.00,030.4,025.8,000.0,038.1,030.8,33.9,0000.0,0005.64,0011.99,0004.29
2023-07-28 23:49:00,SystemResetWarning,0836.8,5.00,000.00,030.3,025.0,000.0,038.0,030.6,33.3,0000.0,0005.70,0012.12,0004.30
2023-07-28 23:50:00,SystemResetWarning,0836.8,5.00,000.00,030.2,025.0,000.0,038.0,030.5,32.5,0000.0,0005.71,0012.14,0004.29
2023-07-28 23:51:00,SystemResetWarning,0836.8,5.02,000.00,030.1,025.4,000.0,038.1,030.4,32.4,0000.0,0005.76,0011.83,0004.30
2023-07-28 23:52:00,SystemResetWarning,0836.8,5.00,000.00,030.0,025.9,000.0,038.1,030.5,31.6,0000.0,0005.77,0011.44,0004.30
2023-07-28 23:53:00,SystemResetWarning,0836.8,4.99,000.00,030.0,026.3,000.0,038.1,030.6,32.1,0000.0,0005.76,0011.39,0004.29
2023-07-28 23:54:00,SystemResetWarning,0836.8,5.00,000.00,030.0,026.7,000.0,038.1,030.7,32.5,0000.0,0005.72,0011.32,0004.27
2023-07-28 23:55:00,SystemResetWarning,0836.8,5.01,000.00,030.0,027.1,000.0,038.1,030.8,31.0,0000.0,0005.70,0011.25,0004.26
2023-07-28 23:56:00,SystemResetWarning,0836.7,5.00,000.00,030.0,027.4,000.0,038.2,030.9,30.8,0000.0,0005.63,0011.09,0004.23
2023-07-28 23:57:00,SystemResetWarning,0836.8,4.99,000.00,030.0,027.6,000.0,038.2,031.0,30.9,0000.0,0005.58,0011.22,0004.21
2023-07-28 23:58:00,SystemResetWarning,0836.8,4.99,000.00,030.0,026.8,000.0,038.1,030.9,31.0,0000.0,0005.57,0011.52,0004.21
2023-07-28 23:59:00,SystemResetWarning,0836.6,5.01,000.00,030.0,025.4,000.0,038.0,030.7,30.9,0000.0,0005.56,0011.33,0004.21
